Location: Appenberg
(47.7833°N, 9.6833°E)
Time: 00:56:04
(UTC+00:00)

Daily predictions for brighter satellites

Satellite Brightness Start Highest point End
(mag) Time Altitude Azimuth Time Altitude Azimuth Time Altitude Azimuth
ACS3 Solar Sail 3.6 02:00:42 10° NNE 02:03:45 26° NE 02:03:45 26° NE
Cosmos 2360 Rocket 4.3 02:17:23 22° NE 02:17:23 22° NE 02:19:25 10° NE
USA 234 4.4 02:07:35 10° ESE 02:11:31 38° E 02:11:31 38° E
Cosmos 2322 Rocket 4.3 02:17:43 21° NE 02:17:43 21° NE 02:19:38 10° NE
SL-16 R/B 4.4 02:24:11 18° NNE 02:24:11 18° NNE 02:25:37 10° NNE
ADEOS Rocket 3.7 02:33:32 10° NNE 02:38:45 57° NE 02:38:45 57° NE
CZ-2C R/B 4.3 02:37:57 10° NE 02:42:13 28° E 02:42:20 28° E
Cosmos 2219 Rocket 3.1 02:55:06 45° ENE 02:55:06 45° ENE 02:59:11 10° NNE
BREEZE-M DEB (TANK) 4.4 02:53:28 75° W 02:54:14 82° SSW 03:19:21 10° SE
USA 267 3.0 03:13:17 10° NE 03:19:52 86° NNW 03:20:18 79° W
Cosmos 2228 Rocket 4.2 03:26:01 40° NE 03:26:01 40° NE 03:29:12 10° NNE
Cosmos 1269 Rocket 4.5 03:29:01 39° N 03:30:48 59° ENE 03:36:01 10° SE
H-2A R/B 4.0 03:26:57 10° N 03:28:05 16° N 03:28:05 16° N
USA 238 DEB 4.4 03:33:04 34° NNW 03:33:04 34° NNW 03:39:07 10° NE
USA 238 4.4 03:33:10 35° NNW 03:33:10 35° NNW 03:39:14 10° NE
Cosmos 2278 Rocket 3.3 03:29:49 18° N 03:33:39 40° NE 03:38:57 10° ESE
Cosmos 2333 Rocket 3.4 03:39:30 28° NNW 03:39:30 28° NNW 03:42:55 10° NNE
Cosmos 2173 Rocket 4.2 03:31:44 10° N 03:37:49 65° ENE 03:43:50 10° SSE
Cosmos 2237 Rocket 4.5 03:35:36 10° SSE 03:39:55 23° ESE 03:44:13 10° NE
ADEOS II 4.4 03:39:32 10° N 03:39:54 12° N 03:39:54 12° N
COSMOS 2455 3.5 03:45:06 39° NNW 03:45:06 39° NNW 03:50:08 10° NNE
Lacrosse 5 rocket 3.3 03:46:58 17° NNE 03:46:58 17° NNE 03:48:01 10° NE
Cosmos 2298 Rocket 4.3 03:46:57 52° NNW 03:46:57 52° NNW 03:51:21 10° NNE
Cosmos 1153 Rocket 4.3 03:40:12 10° NNW 03:46:20 70° W 03:52:31 10° S
Cosmos 1939 Rocket 3.5 03:43:45 10° NNE 03:47:32 51° E 03:48:49 34° SSE
ACS3 Solar Sail 2.3 03:43:34 10° N 03:47:53 39° NW 03:47:53 39° NW
BlueWalker 3 2.7 03:53:51 45° SE 03:53:51 45° SE 03:56:26 10° ESE
USA 234 3.3 03:50:37 10° SE 03:57:04 58° SW 03:58:52 44° W
CENTAUR R/B 4.4 03:52:18 16° NNW 03:57:18 30° NNE 04:04:52 10° E
Cosmos 2123 Rocket 4.4 03:51:46 10° S 03:57:52 62° E 04:03:58 10° NNE
Cosmos 2360 Rocket 3.2 03:59:09 30° NNW 03:59:09 30° NNW 04:03:13 10° NNE
Cosmos 2322 Rocket 3.3 03:59:32 27° NNW 03:59:32 27° NNW 04:03:22 10° NNE
Helios 1A Rocket 4.1 03:57:00 10° SE 04:00:05 33° ENE 04:02:41 13° N
Gbstr 26 Del rocket 3.6 03:59:16 46° SSW 04:00:38 66° SSE 04:06:26 10° ENE
SL-16 R/B 3.9 04:06:02 18° NNW 04:06:02 18° NNW 04:08:53 10° N
Cosmos 44 Rocket 3.3 04:05:02 47° NW 04:06:31 79° SW 04:11:40 10° SSE
Cosmos 2016 Rocket 4.3 04:02:43 10° N 04:09:06 68° ENE 04:15:26 10° SSE
Cosmos 1943 Rocket 2.3 04:06:17 16° NNW 04:10:45 73° ENE 04:16:15 10° SSE
Meteor 2-14 Rocket 4.3 04:05:37 10° SSW 04:11:39 65° WNW 04:17:44 10° N
Okean 1-7 3.8 04:13:10 34° NNW 04:13:10 34° NNW 04:15:51 10° N
H-2A R/B 4.1 04:08:48 10° N 04:11:15 36° NNW 04:11:15 36° NNW
NOSS 2-1 (C) 2.8 04:14:58 78° NNE 04:14:58 78° NNE 04:17:49 10° NE
ARGOS 3.4 04:09:53 10° N 04:15:02 45° WNW 04:16:17 39° WSW
PAYLOAD A 4.1 04:10:36 10° N 04:15:55 59° WNW 04:20:29 14° SW
Cosmos 1908 Rocket 3.5 04:12:16 10° N 04:16:44 89° WSW 04:21:09 10° S
Cosmos 1140 Rocket 3.3 04:15:56 26° NNW 04:18:46 66° WSW 04:23:49 10° S
NOSS 2-1 (D) 2.8 04:19:05 67° N 04:19:05 67° N 04:21:51 10° NE
CZ-2C R/B 2.7 04:15:41 10° N 04:20:24 44° WNW 04:21:32 37° WSW
Timation 2 Rocket 4.0 04:14:48 14° NNW 04:20:45 78° WSW 04:27:07 10° SSE
Cosmos 1300 Rocket 4.1 04:17:11 10° N 04:21:29 59° ENE 04:25:44 10° SSE
ADEOS Rocket 4.0 04:19:49 10° N 04:25:08 28° WNW 04:25:40 28° WNW
Cosmos 2061 Rocket 4.4 04:22:58 10° N 04:29:09 64° ENE 04:35:16 10° SSE
NOSS 3-1 (C) 2.9 04:27:25 30° WSW 04:29:45 65° NW 04:35:31 10° NE
Iridium 4 Rocket 2.9 04:27:36 10° N 04:32:00 88° E 04:36:09 10° S
Cosmos 2100 Rocket 4.1 04:26:30 10° NNW 04:32:24 50° W 04:38:17 10° SSW
SJ 16-02 3.3 04:29:07 10° N 04:32:48 27° ENE 04:36:27 10° ESE
Orbus 7S? 4.4 04:29:08 10° SW 04:35:29 52° SE 04:38:43 10° ENE
Cosmos 2219 Rocket 3.1 04:36:50 26° WNW 04:37:56 28° NW 04:42:47 10° NNE
IRS-1D 3.3 04:35:33 10° NNE 04:40:34 82° WNW 04:45:29 10° SSW
NOSS 0 Rocket 3.9 04:37:47 10° SSW 04:43:57 86° WNW 04:50:09 10° NNE
COSMOS 2428 2.8 04:41:54 10° SW 04:47:28 54° WNW 04:53:03 10° NNE
USA 59 Rocket 0.0 04:50:47 30° WNW 04:51:10 31° NW 04:53:52 10° NNE
Cosmos 1459 Rocket 4.4 04:47:41 10° NNW 04:53:32 39° W 04:59:19 10° SSW
Cosmos 2322 4.1 04:50:01 12° WSW 04:55:01 42° NW 05:00:25 10° NNE
FengYun 1-2 T 4.4 04:51:39 10° N 04:57:00 50° WNW 05:02:22 10° SW
COSMO-SKYMED 1 2.4 04:54:09 10° S 04:58:15 66° WSW 05:02:22 10° NNW
SKYMED 2 3.8 04:55:24 10° S 04:59:35 47° W 05:03:49 10° NNW
Cosmos 407 Rocket 3.5 04:55:42 10° NNW 05:00:41 55° WSW 05:05:39 10° S
USA 267 3.7 04:56:22 10° NE 05:02:31 45° NNW 05:07:39 15° W
Cosmos 1484 Rocket 3.0 04:59:36 10° NNE 05:03:09 65° ESE 05:06:40 10° S
Cosmos 2228 Rocket 4.5 05:03:29 18° WNW 05:03:29 18° WNW 05:06:22 10° NNW
Cosmos 1725 Rocket 4.2 04:58:02 10° NNW 05:04:03 47° W 05:10:02 10° SSW
Cosmos 1980 3.6 05:01:29 10° SSW 05:07:09 77° WNW 05:12:51 10° NNE
Cosmos 1802 Rocket 4.5 05:06:04 10° NNW 05:11:51 38° W 05:17:32 10° SSW
NOSS 3-1 (A) 2.9 05:09:08 10° SW 05:13:53 71° NW 05:19:41 10° NE
Cosmos 1656 Rocket 4.3 05:08:16 10° NNW 05:13:54 61° ENE 05:19:30 10° SE
Cosmos 2233 Rocket 4.1 05:09:11 10° NNW 05:15:20 56° W 05:21:26 10° SSW
Cosmos 1703 Rocket 4.4 05:13:54 10° SW 05:17:39 28° WNW 05:21:28 10° N
Cosmos 2278 Rocket 2.7 05:12:31 10° NW 05:17:42 38° WSW 05:22:51 10° S
Cosmos 2251 Rocket 3.5 05:14:15 10° NNW 05:19:35 69° WSW 05:24:54 10° S
Cosmos 304 Rocket 4.1 05:15:12 10° NNW 05:19:58 68° ENE 05:24:42 10° SSE
NOSS 2-1 (E) 4.0 05:18:52 14° W 05:21:02 24° NW 05:23:39 10° NNE
Cosmos 1939 Rocket 4.3 05:18:43 10° NNW 05:21:07 16° WNW 05:23:29 10° W
CZ-3 R/B 4.0 05:18:04 10° SW 05:22:20 14° SSW 05:25:18 10° SSE
Lacrosse 5 rocket 2.8 05:20:39 10° NW 05:22:59 17° N 05:25:18 10° NE
Cosmos 2237 Rocket 2.2 05:17:50 10° SW 05:23:28 64° WNW 05:29:06 10° NNE
Cosmos 2333 Rocket 4.2 05:23:01 10° NW 05:23:55 10° NNW 05:24:49 10° NNW
IGS 5A 3.6 05:22:07 10° NNE 05:26:09 77° ESE 05:30:09 10° S
Cosmos 2292 Rocket 4.4 05:24:13 10° SW 05:28:10 35° WNW 05:33:09 10° N
BlueWalker 3 3.7 05:27:40 10° W 05:29:55 16° SW 05:32:14 10° S
Cosmos 2151 Rocket 4.4 05:27:49 10° N 05:32:15 56° ENE 05:36:39 10° SSE
Helios 1A Rocket 4.0 05:30:38 10° SW 05:32:55 17° W 05:35:11 10° NW
Cosmos 2242 Rocket 3.5 05:29:37 10° SSW 05:33:59 78° W 05:38:24 10° N
ATLAS 3B R/B 4.5 05:27:21 10° S 05:34:14 42° ESE 05:41:29 10° NE
Cosmos 2369 Rocket 3.1 05:30:11 10° NNW 05:35:42 50° NE 05:41:14 10° SE
Cosmos 1624 Rocket 4.1 05:34:31 10° SSW 05:39:42 87° ESE 05:44:55 10° NNE
Cosmos 968 Rocket 4.3 05:37:05 10° NNW 05:42:13 52° ENE 05:47:20 10° SE
Cosmos 1420 Rocket 4.2 05:40:22 10° SW 05:45:31 54° WNW 05:50:44 10° NNE
Gbstr 26 Del rocket 3.9 05:42:09 10° W 05:47:21 63° N 05:53:48 10° ENE
CENTAUR R/B 3.7 05:41:29 10° NW 05:49:31 64° NE 05:58:48 10° SE
